Weather History for Osceola, WI

Change the Weather History Date:

Wednesday, March 13, 2013

  Actual Average (KMSP) Record (KMSP)
Temperature  
Mean Temperature 20 °F 31 °F  
Max Temperature 32 °F 40 °F 67 °F (2012)
Min Temperature 8 °F 23 °F -9 °F (1895)
Degree Days  
Heating Degree Days 45 34  
Month to date heating degree days 472  
Since 1 July heating degree days 6262  
Cooling Degree Days 0 0  
Month to date cooling degree days 0  
Year to date cooling degree days 0  
Moisture  
Dew Point 11 °F    
Average Humidity 65    
Maximum Humidity 93    
Minimum Humidity 38    
Precipitation  
Precipitation 0.00 in 0.05 in 0.78 in (2006)
Month to date precipitation 0.68  
Year to date precipitation 2.35  
Snow  
Snow 0.00 in 0.40 in 9.90 in (2006)
Month to date snowfall 5.3  
Since 1 July snowfall 47.0  
Snow Depth -    
Sea Level Pressure  
Sea Level Pressure 30.30 in    
Wind  
Wind Speed 5 mph (West)    
Max Wind Speed 10 mph    
Max Gust Speed 16 mph    
Visibility 10 miles    
Events      
T = Trace of Precipitation, MM = Missing Value Source: NWS Daily Summary

Daily Weather History Graph

Daily Weather History Graph

Search for Another Location

Airport:

Trip Planner

Search our weather history database for the weather conditions in past years. The results will help you decide how hot, cold, wet, or windy it might be!

Date:

Astronomy

Mar. 13, 2013 Rise Set
Actual Time 7:26 AM CDT 7:14 PM CDT
Civil Twilight 6:57 AM CDT 7:43 PM CDT
Nautical Twilight 6:22 AM CDT 8:18 PM CDT
Astronomical Twilight 5:48 AM CDT 8:53 PM CDT
Moon 7:59 AM CDT (3/13) 9:40 PM CDT (3/13)
Length of Visible Light 12h 46m
Length of Day
11h 47m
Waxing Crescent, 4% of the Moon is Illuminated
Mar 13
Waxing Crescent
Mar 19
First Quarter
Mar 27
Full
Apr 2
Last Quarter
Apr 10
New

Hourly Weather History & Observations

Time (CDT) Temp. Windchill Dew Point Humidity Pressure Visibility Wind Dir Wind Speed Gust Speed Precip Events Conditions
12:15 AM 21.2 °F 12.6 °F 10.4 °F 63% 30.19 in 10.0 mi WNW 6.9 mph - N/A   Scattered Clouds
12:35 AM 19.4 °F 10.4 °F 10.4 °F 68% 30.19 in 10.0 mi WNW 6.9 mph - N/A   Scattered Clouds
12:55 AM 19.4 °F 14.3 °F 8.6 °F 63% 30.19 in 10.0 mi NW 3.5 mph - N/A   Clear
1:15 AM 19.4 °F 12.8 °F 8.6 °F 63% 30.20 in 10.0 mi NW 4.6 mph - N/A   Clear
1:35 AM 19.4 °F 11.5 °F 8.6 °F 63% 30.20 in 10.0 mi NW 5.8 mph - N/A   Clear
1:55 AM 19.4 °F 12.8 °F 8.6 °F 63% 30.21 in 10.0 mi NW 4.6 mph - N/A   Clear
2:15 AM 19.4 °F 12.8 °F 8.6 °F 63% 30.21 in 10.0 mi NW 4.6 mph - N/A   Clear
2:35 AM 19.4 °F 12.8 °F 8.6 °F 63% 30.22 in 10.0 mi NW 4.6 mph - N/A   Clear
2:55 AM 17.6 °F 10.7 °F 8.6 °F 68% 30.23 in 10.0 mi WNW 4.6 mph - N/A   Clear
3:15 AM 17.6 °F - 8.6 °F 68% 30.23 in 10.0 mi Calm Calm - N/A   Clear
3:55 AM 17.6 °F 10.7 °F 8.6 °F 68% 30.24 in 10.0 mi NW 4.6 mph - N/A   Clear
4:15 AM 15.8 °F 8.6 °F 8.6 °F 73% 30.25 in 10.0 mi NW 4.6 mph - N/A   Clear
4:35 AM 14.0 °F 5.1 °F 8.6 °F 79% 30.25 in 10.0 mi WNW 5.8 mph - N/A   Clear
4:55 AM 14.0 °F 5.1 °F 10.4 °F 86% 30.26 in 10.0 mi WNW 5.8 mph - N/A   Clear
5:15 AM 14.0 °F 6.5 °F 10.4 °F 86% 30.27 in 10.0 mi NW 4.6 mph - N/A   Clear
5:35 AM 14.0 °F - 10.4 °F 86% 30.28 in 10.0 mi Calm Calm - N/A   Clear
5:55 AM 12.2 °F - 8.6 °F 85% 30.28 in 10.0 mi Calm Calm - N/A   Clear
6:15 AM 10.4 °F - 8.6 °F 92% 30.29 in 10.0 mi Calm Calm - N/A   Clear
6:35 AM 10.4 °F - 6.8 °F 85% 30.30 in 10.0 mi Calm Calm - N/A   Clear
6:55 AM 8.6 °F - 3.2 °F 79% 30.31 in 10.0 mi Calm Calm - N/A   Clear
7:15 AM 8.6 °F 2.0 °F 5.0 °F 85% 30.32 in 10.0 mi WSW 3.5 mph - N/A   Clear
7:35 AM 8.6 °F 2.0 °F 6.8 °F 92% 30.32 in 10.0 mi West 3.5 mph - N/A   Clear
7:55 AM 10.4 °F - 8.6 °F 92% 30.33 in 10.0 mi Calm Calm - N/A   Clear
8:15 AM 10.4 °F 4.0 °F 8.6 °F 92% 30.33 in 10.0 mi WSW 3.5 mph - N/A   Clear
8:35 AM 10.4 °F 4.0 °F 8.6 °F 92% 30.34 in 10.0 mi WSW 3.5 mph - N/A   Clear
8:55 AM 12.2 °F - 10.4 °F 92% 30.34 in 10.0 mi Calm Calm - N/A   Clear
9:15 AM 14.0 °F 6.5 °F 12.2 °F 93% 30.35 in 10.0 mi NW 4.6 mph - N/A   Clear
9:35 AM 15.8 °F 7.2 °F 12.2 °F 86% 30.36 in 10.0 mi NW 5.8 mph - N/A   Clear
9:55 AM 17.6 °F 9.3 °F 12.2 °F 79% 30.37 in 10.0 mi NW 5.8 mph - N/A   Clear
10:15 AM 19.4 °F 11.5 °F 12.2 °F 74% 30.37 in 10.0 mi WNW 5.8 mph - N/A   Clear
10:35 AM 19.4 °F 11.5 °F 12.2 °F 74% 30.38 in 10.0 mi WNW 5.8 mph - N/A   Clear
10:55 AM 21.2 °F - 12.2 °F 68% 30.38 in 10.0 mi Calm Calm - N/A   Clear
11:15 AM 21.2 °F 13.6 °F 12.2 °F 68% 30.38 in 10.0 mi NNW 5.8 mph - N/A   Clear
11:35 AM 23.0 °F 18.4 °F 12.2 °F 63% 30.38 in 10.0 mi WSW 3.5 mph - N/A   Clear
11:55 AM 24.8 °F 20.5 °F 12.2 °F 59% 30.38 in 10.0 mi SW 3.5 mph - N/A   Clear
12:15 PM 26.6 °F 22.6 °F 12.2 °F 55% 30.37 in 10.0 mi West 3.5 mph - N/A   Clear
12:35 PM 26.6 °F - 12.2 °F 55% 30.37 in 10.0 mi Calm Calm - N/A   Clear
12:55 PM 28.4 °F 23.3 °F 12.2 °F 51% 30.37 in 10.0 mi West 4.6 mph - N/A   Clear
1:15 PM 30.2 °F 23.4 °F 14.0 °F 51% 30.37 in 10.0 mi West 6.9 mph - N/A   Clear
1:35 PM 30.2 °F 23.4 °F 10.4 °F 44% 30.37 in 10.0 mi West 6.9 mph - N/A   Clear
1:55 PM 30.2 °F 23.4 °F 12.2 °F 47% 30.36 in 10.0 mi West 6.9 mph - N/A   Clear
2:15 PM 32.0 °F 27.5 °F 10.4 °F 41% 30.35 in 10.0 mi NW 4.6 mph - N/A   Clear
2:35 PM 32.0 °F 24.8 °F 10.4 °F 41% 30.35 in 10.0 mi WNW 8.1 mph - N/A   Clear
2:55 PM 32.0 °F 26.4 °F 8.6 °F 38% 30.33 in 10.0 mi NW 5.8 mph - N/A   Clear
3:15 PM 32.0 °F 23.6 °F 10.4 °F 41% 30.33 in 10.0 mi West 10.4 mph 16.1 mph N/A   Clear
3:35 PM 32.0 °F 25.6 °F 10.4 °F 41% 30.34 in 10.0 mi WNW 6.9 mph - N/A   Clear
3:55 PM 32.0 °F 26.4 °F 10.4 °F 41% 30.33 in 10.0 mi West 5.8 mph - N/A   Clear
4:15 PM 32.0 °F 24.2 °F 10.4 °F 41% 30.33 in 10.0 mi West 9.2 mph - N/A   Clear
4:35 PM 32.0 °F 25.6 °F 12.2 °F 44% 30.33 in 10.0 mi West 6.9 mph - N/A   Clear
4:55 PM 32.0 °F 25.6 °F 12.2 °F 44% 30.32 in 10.0 mi WSW 6.9 mph - N/A   Clear
5:15 PM 32.0 °F 24.2 °F 10.4 °F 41% 30.32 in 10.0 mi West 9.2 mph - N/A   Clear
5:35 PM 32.0 °F 25.6 °F 10.4 °F 41% 30.32 in 10.0 mi West 6.9 mph - N/A   Clear
5:55 PM 32.0 °F 25.6 °F 12.2 °F 44% 30.31 in 10.0 mi West 6.9 mph - N/A   Clear
6:15 PM 30.2 °F 23.4 °F 12.2 °F 47% 30.31 in 10.0 mi WSW 6.9 mph - N/A   Clear
6:35 PM 30.2 °F 23.4 °F 14.0 °F 51% 30.30 in 10.0 mi WSW 6.9 mph - N/A   Clear
6:55 PM 28.4 °F 21.2 °F 14.0 °F 55% 30.31 in 10.0 mi WSW 6.9 mph - N/A   Clear
7:15 PM 28.4 °F 22.2 °F 14.0 °F 55% 30.31 in 10.0 mi WSW 5.8 mph - N/A   Clear
7:35 PM 26.6 °F 20.0 °F 14.0 °F 59% 30.31 in 10.0 mi WSW 5.8 mph - N/A   Clear
7:55 PM 26.6 °F 21.2 °F 12.2 °F 55% 30.31 in 10.0 mi WSW 4.6 mph - N/A   Clear
8:15 PM 24.8 °F 19.1 °F 12.2 °F 59% 30.31 in 10.0 mi WSW 4.6 mph - N/A   Clear
8:35 PM 24.8 °F 20.5 °F 12.2 °F 59% 30.31 in 10.0 mi WSW 3.5 mph - N/A   Clear
8:55 PM 24.8 °F - 14.0 °F 64% 30.30 in 10.0 mi Calm Calm - N/A   Clear
9:15 PM 21.2 °F - 12.2 °F 68% 30.30 in 10.0 mi Calm Calm - N/A   Clear
9:35 PM 21.2 °F - 14.0 °F 74% 30.30 in 10.0 mi Calm Calm - N/A   Clear
9:55 PM 21.2 °F - 12.2 °F 68% 30.30 in 10.0 mi Calm Calm - N/A   Clear
10:15 PM 21.2 °F 14.9 °F 14.0 °F 74% 30.28 in 10.0 mi SSE 4.6 mph - N/A   Clear
10:35 PM 21.2 °F 16.4 °F 14.0 °F 74% 30.28 in 10.0 mi South 3.5 mph - N/A   Clear
10:55 PM 21.2 °F 14.9 °F 14.0 °F 74% 30.28 in 10.0 mi South 4.6 mph - N/A   Clear
11:15 PM 21.2 °F 16.4 °F 14.0 °F 74% 30.28 in 10.0 mi South 3.5 mph - N/A   Clear
11:35 PM 23.0 °F 18.4 °F 14.0 °F 68% 30.28 in 10.0 mi South 3.5 mph - N/A   Clear
11:55 PM 23.0 °F 18.4 °F 14.0 °F 68% 30.27 in 10.0 mi SE 3.5 mph - N/A   Clear